Погода в Итомле

Россия / Тверская область     56°29′48″N   34°07′45″E
темп.,
°C
ветер,
м/с
пор.,
м/с
влажн.,
%
обл.,
%
осадки,
мм/ч
давл.,
гПа
погр.,
м
16 мая, вс
вс1600:00+10ююз26965 0.0 1007135
03:00+9ююз399987 0.0 1008231
06:00+11ююз399736 0.0 1009301
09:00+16юз477945 0.0 1010707
12:00+18юз4670100 1.2 10101297
15:00+18юз3573100 4.0 10111043
18:00+18ююз35771 1.4 1012474
21:00+13ююз22926 1.7 101334
17 мая, пн
пн1700:00+11ю229451 0.0 101420
03:00+11ююв119466 0.0 101510
06:00+12вюв2494100 0.0 1014108
09:00+16вюв3680100 0.0 1015360
12:00+19вюв4664100 0.0 1013888
15:00+23вюв575320 0.0 10111440
18:00+22вюв5106357 0.0 10091276
21:00+17вюв4139042 0.5 1009363
18 мая, вт
вт1800:00+16вюв413965 0.1 1008387
03:00+15вюв41395100 0.1 1007398
06:00+15вюв4129498 0.0 1006349
09:00+19юв5117488 0.0 1005588
12:00+23юв61158100 0.0 10051312
15:00+23ююв51271100 1.3 10041594
18:00+19ююв61282100 2.1 1004995
21:00+17ююв5138080 4.2 1005600
19 мая, ср
ср1900:00+15ююв413885 0.0 1004583
03:00+13ююв399678 0.0 1005264
06:00+13юв3995100 0.0 1005308
09:00+17ююв3678100 0.0 1005496
12:00+19юв5872100 0.8 10051086
15:00+18юв378099 2.8 1004609
18:00+18вюв498491 1.4 1003458
21:00+15вюв3998100 3.3 1002345
20 мая, чт
чт2000:00+14юв2798100 1.1 1001197
03:00+12вюв399873 1.1 1000277
06:00+13ююв499699 0.3 1000605
09:00+14ююв47786 0.5 1000906
12:00+15ююв578398 1.9 1000961
15:00+13ююз468886 4.5 1001709
18:00+10зюз61094100 1.4 1004752
21:00+8з61292100 1.5 10071208